[[{"header":{"parameterUnit":"m.s-1","parameterCategory":1,"la1":30.2991,"la2":30.254,"lo1":-89.0895,"lo2":-89.0444,"dy":0.0017,"dx":0.0017,"nx":28,"ny":28,"refTime":"2023-07-23T03:00:00:Z","depth":0,"parameterNumber":2,"parameterNumberName":"U-component_of_WINDS"},"data":[0,0,0,0,0,0,0,0,0,0,0,0,0,0,0,0,0,0,0,0,0,0,0,0,0,0,0,0,0,0,0,0,0,0,0,0,0,0,0,0,0,0,0,0,0,0,0,0,0,0,0,0,0,0,0,0,0,0,2.0463,2.0465,0,2.0623,2.0625,2.0626,2.0642,2.0641,2.0639,2.0637,2.0807,2.0813,2.0819,0,0,0,0,0,0,0,0,0,0,0,0,0,2.0176,2.0181,2.0463,2.0465,2.0467,2.0622,2.0625,2.0627,2.0643,2.0641,2.0639,2.0637,2.0805,2.0812,2.0819,0,0,0,0,0,0,0,0,0,0,0,0,0,2.0315,2.0183,2.0462,2.0493,2.0498,2.0622,2.0625,2.0627,2.0643,2.0641,2.0638,2.0636,2.0802,2.0811,2.082,2.0926,0,0,2.0848,2.0852,0,0,0,0,0,0,0,0,2.0307,2.0325,2.0487,2.0491,2.0496,2.061,2.0585,2.0728,2.0644,2.0588,2.0637,2.0634,2.0744,2.0757,2.0793,2.0934,2.0941,2.0849,2.0854,2.0858,2.0861,0,0,0,0,0,0,0,2.0297,2.0318,2.0526,2.0489,2.0495,2.0501,2.0518,2.0613,2.0678,2.0593,2.0594,2.0613,2.0746,2.0784,2.0797,2.0944,2.0848,2.0857,2.0862,2.0866,2.118,2.1183,0,0,0,0,0,0,2.0281,2.031,2.0521,2.0531,2.0393,2.0508,2.0527,2.0576,2.0677,2.069,2.0615,2.0613,2.077,2.0786,2.0803,2.0933,2.0858,2.0867,2.0872,2.1177,2.1181,2.1184,0,0,0,0,0,0,2.0275,2.03,2.0515,2.0421,2.0449,2.0515,2.0571,2.0581,2.0619,2.0693,2.0706,2.0641,2.0769,2.079,2.0895,2.094,2.0871,2.0879,2.1174,2.1178,2.1182,2.1195,0,0,0,0,0,0,2.0266,2.0297,2.0337,2.0422,2.0454,2.0602,2.0573,2.0586,2.0634,2.0633,2.0722,2.0734,2.0768,2.0881,2.0904,2.0951,2.0886,2.117,2.1176,2.1181,2.1191,2.1199,2.1206,0,0,0,0,0,2.0256,2.0336,2.0339,2.0365,2.0505,2.0605,2.0623,2.0659,2.0637,2.0679,2.0727,2.0732,2.0931,2.0892,2.0918,2.0968,2.1167,2.1174,2.118,2.1188,2.1198,2.1206,0,0,0,0,0,0,2.0257,2.0348,2.0352,2.0462,2.0525,2.0607,2.0661,2.0669,2.0742,2.0738,2.0781,2.0801,2.0904,2.0947,2.0902,2.1076,2.1047,2.1059,2.1044,2.1054,2.1062,2.1049,2.0894,0,0,0,0,0,2.027,2.0342,2.0418,2.0507,2.0538,2.0594,2.0639,2.0661,2.0729,2.0757,2.0812,2.088,2.0958,2.1009,2.1084,2.1197,2.1217,2.1245,2.1252,2.1258,2.1268,2.1331,2.1344,2.1205,2.1205,2.1205,0,0,2.0297,2.0356,2.0399,2.0509,2.056,2.0635,2.0617,2.0697,2.0753,2.077,2.0871,2.0914,2.0993,2.1102,2.1153,2.114,2.1311,2.1267,2.1271,2.1278,2.1339,2.1352,2.1363,2.1209,2.1209,2.1208,0,0,2.0385,2.0436,2.0516,2.0568,2.0646,2.0682,2.0701,2.0782,2.081,2.0912,2.0926,2.0995,2.1128,2.1183,2.1228,2.1336,2.1344,2.136,2.14,2.1461,2.1472,2.1482,2.152,2.1533,2.137,2.137,2.137,0,2.041,2.0521,2.0556,2.0635,2.0683,2.0699,2.0781,2.083,2.093,2.0963,2.0948,2.1114,2.1169,2.129,2.1316,2.1353,2.1376,2.135,2.1467,2.1477,2.1487,2.1524,2.1538,2.1371,2.1371,2.1371,2.1371,0,2.0547,2.0625,2.068,2.0773,2.0827,2.0908,2.0955,2.1007,2.1024,2.1062,2.1166,2.1231,2.132,2.135,2.1369,2.1475,2.1465,2.1458,2.143,2.1501,2.1536,2.1551,2.1373,2.1373,2.1372,2.1372,0,0,2.0641,2.0751,2.0771,2.0813,2.09,2.0961,2.1042,2.1127,2.117,2.1238,2.1308,2.1419,2.1413,2.1464,2.1489,2.1542,2.1623,2.1529,2.1531,2.1544,2.1744,2.1748,2.1764,2.1628,2.1631,2.1633,2.1737,0,2.0738,2.088,2.0914,2.1037,2.1108,2.1125,2.1195,2.1257,2.1295,2.1363,2.1406,2.1484,2.147,2.1501,2.1554,2.1602,2.1664,2.1595,2.1694,2.1697,2.1674,2.1782,2.1788,2.1882,2.1751,2.1753,2.1755,0,2.087,2.0939,2.1068,2.1145,2.1176,2.1239,2.1319,2.1384,2.1454,2.1478,2.1535,2.1554,2.164,2.1608,2.1728,2.168,2.1723,2.1753,2.1757,2.1768,2.173,2.1796,2.1913,2.1927,2.1777,2.1776,2.1774,0,2.0924,2.105,2.1143,2.1179,2.1271,2.1314,2.1355,2.1423,2.1472,2.1542,2.1575,2.1655,2.17,2.1762,2.1803,2.1776,2.192,2.1891,2.1943,2.1942,2.1972,2.197,2.2098,2.2,2.2,2.2,2.1999,0,2.1029,2.1108,2.1168,2.1226,2.1314,2.1352,2.144,2.1481,2.1541,2.1608,2.1628,2.169,2.174,2.181,2.1843,2.1937,2.1957,2.198,2.1988,2.1978,2.1975,2.2007,2.2001,2.2004,2.2003,2.2002,2.2001,0,2.1105,2.1148,2.1251,2.1329,2.135,2.1412,2.148,2.1537,2.1575,2.1659,2.1681,2.1741,2.1825,2.1871,2.1977,2.1999,2.2104,2.2108,2.2079,2.2082,2.2132,2.2126,2.2285,2.2308,2.2194,2.2195,2.2196,0,2.1168,2.1229,2.1312,2.1357,2.1398,2.1471,2.152,2.156,2.1611,2.1695,2.1743,2.1826,2.1895,2.2028,2.2082,2.2163,2.217,2.222,2.2182,2.217,2.217,2.2166,2.2173,2.2226,2.2227,2.2228,2.2229,0,2.1276,2.1295,2.1364,2.1441,2.1498,2.1561,2.1624,2.166,2.1711,2.1767,2.1851,2.1905,2.2011,2.2094,2.2179,2.2223,2.2235,2.224,2.2256,2.2247,2.2227,2.2238,2.2096,2.2236,2.2236,2.2235,2.2235,2.2234,2.1348,2.1402,2.1469,2.1545,2.1596,2.1654,2.1711,2.1755,2.1826,2.1914,2.1934,2.2023,2.2092,2.2207,2.2253,2.2324,2.2315,2.2339,2.2345,2.235,2.2351,2.2216,2.234,2.2339,2.2339,2.2339,2.2339,0,2.1457,2.15,2.157,2.1656,2.1716,2.172,2.1789,2.184,2.1917,2.198,2.2047,2.2144,2.2225,2.2285,2.2368,2.2413,2.2421,2.2433,2.2431,2.2441,2.2355,2.2332,2.2426,2.2426,2.2426,2.2426,2.2426,2.2426,2.152,2.1612,2.1638,2.1755,2.1799,2.1885,2.1924,2.1978,2.2028,2.2134,2.2201,2.2239,2.2301,2.2388,2.2463,2.2479,2.2509,2.2521,2.2537,2.2456,2.2447,2.2438,2.2417,2.2527,2.2527,2.2617,2.2618,2.2619]},{"header":{"parameterUnit":"m.s-1","parameterCategory":1,"la1":30.2991,"la2":30.254,"lo1":-89.0895,"lo2":-89.0444,"dy":0.0017,"dx":0.0017,"nx":28,"ny":28,"refTime":"2023-07-23T03:00:00:Z","depth":0,"parameterNumber":3,"parameterNumberName":"V-component_of_WINDS"},"data":[0,0,0,0,0,0,0,0,0,0,0,0,0,0,0,0,0,0,0,0,0,0,0,0,0,0,0,0,0,0,0,0,0,0,0,0,0,0,0,0,0,0,0,0,0,0,0,0,0,0,0,0,0,0,0,0,0,0,2.3328,2.3328,0,2.334,2.334,2.3341,2.3283,2.3281,2.328,2.3278,2.3289,2.3291,2.3292,0,0,0,0,0,0,0,0,0,0,0,0,0,2.3252,2.3253,2.3328,2.3328,2.3328,2.334,2.334,2.3341,2.3283,2.3281,2.3279,2.3277,2.3288,2.329,2.3293,0,0,0,0,0,0,0,0,0,0,0,0,0,2.3276,2.3254,2.3328,2.3301,2.3299,2.334,2.334,2.3341,2.3284,2.3281,2.3279,2.3277,2.3287,2.329,2.3293,2.336,0,0,2.3301,2.3302,0,0,0,0,0,0,0,0,2.3275,2.3279,2.3305,2.3303,2.3301,2.3308,2.3317,2.3347,2.3284,2.3289,2.3278,2.3275,2.3297,2.3299,2.3307,2.336,2.3361,2.3302,2.3303,2.3304,2.3305,0,0,0,0,0,0,0,2.3273,2.3278,2.3333,2.3305,2.3303,2.3288,2.3288,2.3323,2.3307,2.3289,2.3285,2.3287,2.3295,2.3304,2.3306,2.3361,2.3301,2.3304,2.3306,2.3307,2.3471,2.3474,0,0,0,0,0,0,2.3276,2.3277,2.3332,2.3333,2.3282,2.3291,2.3292,2.3308,2.3306,2.3304,2.3289,2.3284,2.3301,2.3303,2.3306,2.3386,2.3304,2.3307,2.3309,2.3468,2.3472,2.3475,0,0,0,0,0,0,2.3274,2.3281,2.3332,2.3304,2.3309,2.3295,2.3313,2.3309,2.3318,2.3307,2.3303,2.3301,2.3299,2.3303,2.3347,2.3386,2.3308,2.3311,2.3465,2.3469,2.3473,2.3546,0,0,0,0,0,0,2.3272,2.3281,2.3307,2.3305,2.3311,2.3374,2.3316,2.3311,2.3323,2.3317,2.3317,2.3315,2.3297,2.3344,2.335,2.3388,2.3313,2.3462,2.3467,2.3472,2.354,2.3552,2.3562,0,0,0,0,0,2.327,2.3326,2.3309,2.3316,2.3344,2.3376,2.3379,2.3358,2.3327,2.3353,2.3345,2.3315,2.338,2.3349,2.3355,2.3395,2.3459,2.3465,2.3471,2.3535,2.3549,2.3562,0,0,0,0,0,0,2.3332,2.3326,2.3306,2.3364,2.3371,2.3366,2.3398,2.3374,2.339,2.3383,2.3355,2.3356,2.3406,2.3404,2.337,2.346,2.3414,2.3422,2.346,2.3474,2.3484,2.3485,2.3315,0,0,0,0,0,2.3353,2.338,2.3372,2.3424,2.3429,2.3413,2.3426,2.3409,2.3415,2.3418,2.3414,2.342,2.3442,2.3457,2.3476,2.3538,2.3538,2.3569,2.358,2.3589,2.3597,2.363,2.3644,2.3495,2.3495,2.3494,0,0,2.3395,2.3395,2.3414,2.3437,2.344,2.3469,2.3416,2.3448,2.347,2.3422,2.3466,2.3462,2.3468,2.3522,2.3545,2.3522,2.3637,2.3596,2.3604,2.3607,2.3638,2.3652,2.3665,2.3499,2.3498,2.3497,0,0,2.3489,2.3491,2.3535,2.3539,2.3546,2.3535,2.3545,2.3544,2.3541,2.3583,2.3549,2.3573,2.3611,2.3616,2.3624,2.3719,2.3692,2.3725,2.3784,2.3817,2.3829,2.384,2.3875,2.3888,2.3733,2.3733,2.3733,0,2.3541,2.3584,2.356,2.3596,2.3607,2.3566,2.361,2.3615,2.3627,2.3636,2.3609,2.3657,2.3657,2.3712,2.3736,2.3742,2.3754,2.3727,2.383,2.384,2.3849,2.3883,2.3896,2.3737,2.3737,2.3736,2.3736,0,2.3649,2.3679,2.3713,2.3728,2.3742,2.3782,2.3763,2.378,2.3762,2.3753,2.3797,2.3796,2.3815,2.3826,2.3808,2.3879,2.3865,2.3834,2.3788,2.3868,2.3899,2.3912,2.3743,2.3742,2.374,2.3739,0,0,2.3784,2.3784,2.3797,2.3804,2.3807,2.383,2.3867,2.3886,2.3903,2.3911,2.3943,2.3975,2.3947,2.3956,2.3938,2.3967,2.4044,2.3932,2.3932,2.3955,2.4124,2.4149,2.4165,2.4025,2.4027,2.4029,2.4125,0,2.3877,2.3943,2.3922,2.3988,2.4016,2.3976,2.4009,2.4014,2.4007,2.4029,2.402,2.4045,2.4005,2.401,2.4037,2.4029,2.4078,2.4021,2.4055,2.4056,2.4058,2.4181,2.4207,2.4298,2.4136,2.4138,2.414,0,2.3995,2.4011,2.408,2.408,2.409,2.412,2.4137,2.4158,2.4163,2.4155,2.4166,2.4141,2.4177,2.4129,2.4178,2.414,2.4152,2.415,2.4153,2.4158,2.4105,2.4191,2.4326,2.4341,2.4158,2.4157,2.4156,0,2.409,2.4127,2.4174,2.418,2.418,2.4202,2.4203,2.4205,2.4219,2.4232,2.424,2.4257,2.4268,2.4281,2.4262,2.4228,2.4315,2.4264,2.431,2.4311,2.4333,2.4332,2.4474,2.4336,2.4336,2.4336,2.4335,0,2.4198,2.4243,2.4217,2.4246,2.4294,2.4269,2.4317,2.4313,2.4316,2.4343,2.4308,2.4334,2.4306,2.4329,2.4313,2.4358,2.4362,2.4357,2.4353,2.4362,2.4363,2.4372,2.4366,2.4339,2.4338,2.4338,2.4337,0,2.4313,2.4298,2.4346,2.4342,2.4342,2.4378,2.4374,2.4401,2.439,2.4425,2.4432,2.4416,2.4441,2.4422,2.4447,2.4436,2.4496,2.4481,2.4495,2.4492,2.454,2.4537,2.4695,2.4715,2.4562,2.4563,2.4564,0,2.4385,2.4418,2.4418,2.4434,2.4438,2.4464,2.4477,2.4453,2.4468,2.4476,2.4502,2.4524,2.4542,2.4584,2.4574,2.4593,2.458,2.4634,2.4583,2.4592,2.4584,2.4584,2.4588,2.4646,2.4648,2.4649,2.465,0,2.4514,2.4504,2.4526,2.4545,2.4562,2.4575,2.4586,2.4601,2.4576,2.4594,2.4621,2.4634,2.466,2.4683,2.4699,2.4698,2.4671,2.4666,2.4678,2.4689,2.4697,2.4696,2.4526,2.4663,2.4662,2.4661,2.466,2.466,2.4611,2.464,2.4644,2.4669,2.4674,2.4685,2.471,2.4703,2.4725,2.4745,2.4728,2.476,2.4763,2.4781,2.4784,2.4809,2.4787,2.4804,2.4808,2.4814,2.4822,2.469,2.4811,2.481,2.481,2.481,2.4809,0,2.4741,2.4742,2.4765,2.4781,2.4801,2.4772,2.4782,2.4801,2.483,2.4835,2.4853,2.4884,2.4906,2.4897,2.4917,2.4938,2.4926,2.4944,2.4944,2.4945,2.4839,2.4828,2.4954,2.4954,2.4954,2.4954,2.4954,2.4954,2.4811,2.4858,2.4849,2.4899,2.4898,2.493,2.4939,2.4948,2.4953,2.4989,2.5008,2.5002,2.5002,2.5022,2.5041,2.5038,2.5048,2.5071,2.5064,2.4966,2.4952,2.4939,2.4928,2.5073,2.5073,2.5168,2.5169,2.5169]}]]